iso_date,epoch_date,Year,Hour,Min,DOY,POS_DOY,Lat,Lon,BP,Ts,Ta,has_bp,has_ts,has_ta,BuoyID,Buoy_Type,Buoy_Owner,Logistics,Hemisphere
2015-03-22T19:06:14Z,1427051174,2015,19,6,81.796,78.952,70.2006,-148.4488,1016.8,1.5,-999.0,yes,yes,no,300234061365150,IceBall,USIABP,unknown,North
2015-03-22T19:59:31Z,1427054371,2015,20,0,81.833,78.989,70.2006,-148.4488,1017.0,-13.8,-999.0,yes,yes,no,300234061365150,IceBall,USIABP,unknown,North
2015-03-22T21:00:00Z,1427058000,2015,21,0,81.875,81.875,70.2004,-148.4488,1017.1,-15.7,-999.0,yes,yes,no,300234061365150,IceBall,USIABP,unknown,North
2015-03-22T22:00:28Z,1427061629,2015,22,0,81.917,81.875,70.2004,-148.4488,1017.4,-15.7,-999.0,yes,yes,no,300234061365150,IceBall,USIABP,unknown,North
2015-03-25T23:25:26Z,1427325926,2015,23,25,84.976,82.132,73.8194,-149.1852,1012.6,-13.2,-999.0,yes,yes,no,300234061365150,IceBall,USIABP,unknown,North
2015-03-26T00:00:00Z,1427328000,2015,0,0,85.0,85.0,73.8196,-149.1914,1012.7,-15.6,-999.0,yes,yes,no,300234061365150,IceBall,USIABP,unknown,North
2015-03-26T01:00:28Z,1427331629,2015,1,0,85.042,85.0,73.8196,-149.1914,1012.1,-16.3,-999.0,yes,yes,no,300234061365150,IceBall,USIABP,unknown,North
2015-03-26T01:59:31Z,1427335171,2015,2,0,85.083,85.0,73.8196,-149.1914,1011.8,-16.3,-999.0,yes,yes,no,300234061365150,IceBall,USIABP,unknown,North
2015-03-26T03:00:00Z,1427338800,2015,3,0,85.125,85.125,73.8208,-149.2222,1011.7,-16.6,-999.0,yes,yes,no,300234061365150,IceBall,USIABP,unknown,North
2015-03-26T04:00:28Z,1427342429,2015,4,0,85.167,85.125,73.8208,-149.2222,1011.6,-17.1,-999.0,yes,yes,no,300234061365150,IceBall,USIABP,unknown,North
2015-03-26T04:59:31Z,1427345971,2015,5,0,85.208,85.125,73.8208,-149.2222,1011.5,-18.2,-999.0,yes,yes,no,300234061365150,IceBall,USIABP,unknown,North
2015-03-26T06:00:00Z,1427349600,2015,6,0,85.25,85.25,73.8222,-149.2482,1011.3,-18.8,-999.0,yes,yes,no,300234061365150,IceBall,USIABP,unknown,North
2015-03-26T07:00:28Z,1427353229,2015,7,0,85.292,85.25,73.8222,-149.2482,1011.3,-20.1,-999.0,yes,yes,no,300234061365150,IceBall,USIABP,unknown,North
2015-03-26T07:59:31Z,1427356771,2015,8,0,85.333,85.25,73.8222,-149.2482,1011.0,-20.9,-999.0,yes,yes,no,300234061365150,IceBall,USIABP,unknown,North
2015-03-26T09:00:00Z,1427360400,2015,9,0,85.375,85.375,73.8236,-149.2712,1010.7,-21.1,-999.0,yes,yes,no,300234061365150,IceBall,USIABP,unknown,North
2015-03-26T10:00:28Z,1427364029,2015,10,0,85.417,85.375,73.8236,-149.2712,1010.6,-21.6,-999.0,yes,yes,no,300234061365150,IceBall,USIABP,unknown,North
2015-03-26T10:59:31Z,1427367571,2015,11,0,85.458,85.375,73.8236,-149.2712,1010.3,-21.7,-999.0,yes,yes,no,300234061365150,IceBall,USIABP,unknown,North
2015-03-26T12:00:00Z,1427371200,2015,12,0,85.5,85.5,73.8246,-149.293,1010.2,-22.0,-999.0,yes,yes,no,300234061365150,IceBall,USIABP,unknown,North
2015-03-26T13:00:28Z,1427374829,2015,13,0,85.542,85.5,73.8246,-149.293,1010.2,-22.3,-999.0,yes,yes,no,300234061365150,IceBall,USIABP,unknown,North
2015-03-26T13:59:31Z,1427378371,2015,14,0,85.583,85.5,73.8246,-149.293,1010.0,-22.7,-999.0,yes,yes,no,300234061365150,IceBall,USIABP,unknown,North
2015-03-26T15:00:00Z,1427382000,2015,15,0,85.625,85.625,73.8252,-149.3178,1009.8,-22.7,-999.0,yes,yes,no,300234061365150,IceBall,USIABP,unknown,North
2015-03-26T16:00:28Z,1427385629,2015,16,0,85.667,85.625,73.8252,-149.3178,1009.6,-23.1,-999.0,yes,yes,no,300234061365150,IceBall,USIABP,unknown,North
2015-03-26T16:59:31Z,1427389171,2015,17,0,85.708,85.625,73.8252,-149.3178,1009.7,-22.1,-999.0,yes,yes,no,300234061365150,IceBall,USIABP,unknown,North
2015-03-26T18:00:00Z,1427392800,2015,18,0,85.75,85.75,73.826,-149.3458,1009.6,-20.9,-999.0,yes,yes,no,300234061365150,IceBall,USIABP,unknown,North
2015-03-26T19:00:28Z,1427396429,2015,19,0,85.792,85.75,73.826,-149.3458,1009.5,-20.1,-999.0,yes,yes,no,300234061365150,IceBall,USIABP,unknown,North
2015-03-26T19:59:31Z,1427399971,2015,20,0,85.833,85.75,73.826,-149.3458,1009.4,-20.3,-999.0,yes,yes,no,300234061365150,IceBall,USIABP,unknown,North
2015-03-26T21:00:00Z,1427403600,2015,21,0,85.875,85.875,73.8274,-149.3802,1009.8,-19.9,-999.0,yes,yes,no,300234061365150,IceBall,USIABP,unknown,North
2015-03-26T22:00:28Z,1427407229,2015,22,0,85.917,85.875,73.8274,-149.3802,1009.8,-20.1,-999.0,yes,yes,no,300234061365150,IceBall,USIABP,unknown,North
2015-03-26T22:59:31Z,1427410771,2015,23,0,85.958,85.875,73.8274,-149.3802,1009.5,-19.9,-999.0,yes,yes,no,300234061365150,IceBall,USIABP,unknown,North
2015-03-27T00:00:00Z,1427414400,2015,0,0,86.0,86.0,73.829,-149.4214,1009.1,-19.6,-999.0,yes,yes,no,300234061365150,IceBall,USIABP,unknown,North
2015-03-27T01:00:28Z,1427418029,2015,1,0,86.042,86.0,73.829,-149.4214,1009.1,-19.1,-999.0,yes,yes,no,300234061365150,IceBall,USIABP,unknown,North
2015-03-27T01:59:31Z,1427421571,2015,2,0,86.083,86.0,73.829,-149.4214,1009.0,-19.2,-999.0,yes,yes,no,300234061365150,IceBall,USIABP,unknown,North
2015-03-27T03:00:00Z,1427425200,2015,3,0,86.125,86.125,73.8304,-149.4656,1008.9,-19.5,-999.0,yes,yes,no,300234061365150,IceBall,USIABP,unknown,North
2015-03-27T04:00:28Z,1427428829,2015,4,0,86.167,86.125,73.8304,-149.4656,1009.0,-19.7,-999.0,yes,yes,no,300234061365150,IceBall,USIABP,unknown,North
2015-03-27T04:59:31Z,1427432371,2015,5,0,86.208,86.125,73.8304,-149.4656,1009.2,-20.3,-999.0,yes,yes,no,300234061365150,IceBall,USIABP,unknown,North
2015-03-27T06:00:00Z,1427436000,2015,6,0,86.25,86.25,73.8316,-149.5068,1009.2,-20.4,-999.0,yes,yes,no,300234061365150,IceBall,USIABP,unknown,North
2015-03-27T07:00:28Z,1427439629,2015,7,0,86.292,86.25,73.8316,-149.5068,1009.1,-20.8,-999.0,yes,yes,no,300234061365150,IceBall,USIABP,unknown,North
2015-03-27T07:59:31Z,1427443171,2015,8,0,86.333,86.25,73.8316,-149.5068,1009.3,-21.2,-999.0,yes,yes,no,300234061365150,IceBall,USIABP,unknown,North
2015-03-27T09:00:00Z,1427446800,2015,9,0,86.375,86.375,73.8328,-149.5494,1009.2,-19.9,-999.0,yes,yes,no,300234061365150,IceBall,USIABP,unknown,North
2015-03-27T10:00:28Z,1427450429,2015,10,0,86.417,86.375,73.8328,-149.5494,1009.3,-19.7,-999.0,yes,yes,no,300234061365150,IceBall,USIABP,unknown,North
2015-03-27T10:59:31Z,1427453971,2015,11,0,86.458,86.375,73.8328,-149.5494,1009.2,-19.8,-999.0,yes,yes,no,300234061365150,IceBall,USIABP,unknown,North
2015-03-27T12:00:00Z,1427457600,2015,12,0,86.5,86.5,73.833,-149.5946,1009.0,-19.9,-999.0,yes,yes,no,300234061365150,IceBall,USIABP,unknown,North
2015-03-27T13:00:28Z,1427461229,2015,13,0,86.542,86.5,73.833,-149.5946,1009.0,-19.9,-999.0,yes,yes,no,300234061365150,IceBall,USIABP,unknown,North
2015-03-27T13:59:31Z,1427464771,2015,14,0,86.583,86.5,73.833,-149.5946,1009.2,-20.1,-999.0,yes,yes,no,300234061365150,IceBall,USIABP,unknown,North
2015-03-27T15:00:00Z,1427468400,2015,15,0,86.625,86.625,73.8328,-149.64,1009.3,-20.5,-999.0,yes,yes,no,300234061365150,IceBall,USIABP,unknown,North
2015-03-27T16:00:28Z,1427472029,2015,16,0,86.667,86.625,73.8328,-149.64,1009.4,-20.6,-999.0,yes,yes,no,300234061365150,IceBall,USIABP,unknown,North
2015-03-27T16:59:31Z,1427475571,2015,17,0,86.708,86.625,73.8328,-149.64,1009.6,-20.8,-999.0,yes,yes,no,300234061365150,IceBall,USIABP,unknown,North
2015-03-27T18:00:00Z,1427479200,2015,18,0,86.75,86.75,73.8322,-149.6882,1009.4,-20.6,-999.0,yes,yes,no,300234061365150,IceBall,USIABP,unknown,North
2015-03-27T19:00:28Z,1427482829,2015,19,0,86.792,86.75,73.8322,-149.6882,1009.6,-20.8,-999.0,yes,yes,no,300234061365150,IceBall,USIABP,unknown,North
2015-03-27T19:59:31Z,1427486371,2015,20,0,86.833,86.75,73.8322,-149.6882,1009.7,-20.5,-999.0,yes,yes,no,300234061365150,IceBall,USIABP,unknown,North
2015-03-27T21:00:00Z,1427490000,2015,21,0,86.875,86.875,73.832,-149.739,1009.9,-19.4,-999.0,yes,yes,no,300234061365150,IceBall,USIABP,unknown,North
2015-03-27T22:00:28Z,1427493629,2015,22,0,86.917,86.875,73.832,-149.739,1010.1,-19.2,-999.0,yes,yes,no,300234061365150,IceBall,USIABP,unknown,North
2015-03-27T22:59:31Z,1427497171,2015,23,0,86.958,86.875,73.832,-149.739,1010.2,-19.0,-999.0,yes,yes,no,300234061365150,IceBall,USIABP,unknown,North
2015-03-28T00:00:00Z,1427500800,2015,0,0,87.0,87.0,73.8318,-149.7946,1010.4,-18.5,-999.0,yes,yes,no,300234061365150,IceBall,USIABP,unknown,North
2015-03-28T01:00:28Z,1427504429,2015,1,0,87.042,87.0,73.8318,-149.7946,1010.5,-18.1,-999.0,yes,yes,no,300234061365150,IceBall,USIABP,unknown,North
2015-03-28T01:59:31Z,1427507971,2015,2,0,87.083,87.0,73.8318,-149.7946,1010.7,-18.2,-999.0,yes,yes,no,300234061365150,IceBall,USIABP,unknown,North
2015-03-28T03:00:00Z,1427511600,2015,3,0,87.125,87.125,73.8308,-149.8462,1011.0,-18.6,-999.0,yes,yes,no,300234061365150,IceBall,USIABP,unknown,North
2015-03-28T04:00:28Z,1427515229,2015,4,0,87.167,87.125,73.8308,-149.8462,1011.4,-18.8,-999.0,yes,yes,no,300234061365150,IceBall,USIABP,unknown,North
2015-03-28T04:59:31Z,1427518771,2015,5,0,87.208,87.125,73.8308,-149.8462,1011.8,-19.2,-999.0,yes,yes,no,300234061365150,IceBall,USIABP,unknown,North
2015-03-28T06:00:00Z,1427522400,2015,6,0,87.25,87.25,73.8294,-149.896,1011.9,-19.7,-999.0,yes,yes,no,300234061365150,IceBall,USIABP,unknown,North
2015-03-28T07:00:28Z,1427526029,2015,7,0,87.292,87.25,73.8294,-149.896,1012.4,-20.0,-999.0,yes,yes,no,300234061365150,IceBall,USIABP,unknown,North
2015-03-28T07:59:31Z,1427529571,2015,8,0,87.333,87.25,73.8294,-149.896,1012.9,-20.2,-999.0,yes,yes,no,300234061365150,IceBall,USIABP,unknown,North
2015-03-28T09:00:00Z,1427533200,2015,9,0,87.375,87.375,73.828,-149.9422,1013.2,-20.5,-999.0,yes,yes,no,300234061365150,IceBall,USIABP,unknown,North
2015-03-28T10:00:28Z,1427536829,2015,10,0,87.417,87.375,73.828,-149.9422,1013.5,-20.8,-999.0,yes,yes,no,300234061365150,IceBall,USIABP,unknown,North
2015-03-28T10:59:31Z,1427540371,2015,11,0,87.458,87.375,73.828,-149.9422,1013.8,-20.9,-999.0,yes,yes,no,300234061365150,IceBall,USIABP,unknown,North
2015-03-28T12:00:00Z,1427544000,2015,12,0,87.5,87.5,73.826,-149.984,1014.0,-21.0,-999.0,yes,yes,no,300234061365150,IceBall,USIABP,unknown,North
2015-03-28T13:00:28Z,1427547629,2015,13,0,87.542,87.5,73.826,-149.984,1014.4,-21.2,-999.0,yes,yes,no,300234061365150,IceBall,USIABP,unknown,North
2015-03-28T13:59:31Z,1427551171,2015,14,0,87.583,87.5,73.826,-149.984,1014.7,-21.3,-999.0,yes,yes,no,300234061365150,IceBall,USIABP,unknown,North
2015-03-28T15:00:00Z,1427554800,2015,15,0,87.625,87.625,73.823,-150.0252,1015.4,-21.6,-999.0,yes,yes,no,300234061365150,IceBall,USIABP,unknown,North
2015-03-28T16:00:28Z,1427558429,2015,16,0,87.667,87.625,73.823,-150.0252,1015.5,-21.7,-999.0,yes,yes,no,300234061365150,IceBall,USIABP,unknown,North
2015-03-28T16:59:31Z,1427561971,2015,17,0,87.708,87.625,73.823,-150.0252,1015.9,-22.2,-999.0,yes,yes,no,300234061365150,IceBall,USIABP,unknown,North
2015-03-28T18:00:00Z,1427565600,2015,18,0,87.75,87.75,73.8198,-150.0692,1016.2,-21.3,-999.0,yes,yes,no,300234061365150,IceBall,USIABP,unknown,North
2015-03-28T19:00:28Z,1427569229,2015,19,0,87.792,87.75,73.8198,-150.0692,1016.5,-21.6,-999.0,yes,yes,no,300234061365150,IceBall,USIABP,unknown,North
2015-03-28T19:59:31Z,1427572771,2015,20,0,87.833,87.75,73.8198,-150.0692,1017.0,-20.6,-999.0,yes,yes,no,300234061365150,IceBall,USIABP,unknown,North
2015-03-28T21:00:00Z,1427576400,2015,21,0,87.875,87.875,73.8172,-150.1182,1017.4,-20.0,-999.0,yes,yes,no,300234061365150,IceBall,USIABP,unknown,North
2015-03-28T22:00:28Z,1427580029,2015,22,0,87.917,87.875,73.8172,-150.1182,1017.9,-20.1,-999.0,yes,yes,no,300234061365150,IceBall,USIABP,unknown,North
2015-03-28T22:59:31Z,1427583571,2015,23,0,87.958,87.875,73.8172,-150.1182,1018.4,-19.8,-999.0,yes,yes,no,300234061365150,IceBall,USIABP,unknown,North
2015-03-29T00:00:00Z,1427587200,2015,0,0,88.0,88.0,73.8144,-150.1698,1018.7,-19.6,-999.0,yes,yes,no,300234061365150,IceBall,USIABP,unknown,North
2015-03-29T01:00:28Z,1427590829,2015,1,0,88.042,88.0,73.8144,-150.1698,1018.9,-19.5,-999.0,yes,yes,no,300234061365150,IceBall,USIABP,unknown,North
2015-03-29T01:59:31Z,1427594371,2015,2,0,88.083,88.0,73.8144,-150.1698,1019.2,-19.7,-999.0,yes,yes,no,300234061365150,IceBall,USIABP,unknown,North
2015-03-29T03:00:00Z,1427598000,2015,3,0,88.125,88.125,73.8114,-150.22,1019.5,-20.1,-999.0,yes,yes,no,300234061365150,IceBall,USIABP,unknown,North
2015-03-29T04:00:28Z,1427601629,2015,4,0,88.167,88.125,73.8114,-150.22,1019.8,-20.7,-999.0,yes,yes,no,300234061365150,IceBall,USIABP,unknown,North
2015-03-29T04:59:31Z,1427605171,2015,5,0,88.208,88.125,73.8114,-150.22,1020.3,-21.0,-999.0,yes,yes,no,300234061365150,IceBall,USIABP,unknown,North
2015-03-29T06:00:00Z,1427608800,2015,6,0,88.25,88.25,73.8086,-150.2664,1020.6,-21.5,-999.0,yes,yes,no,300234061365150,IceBall,USIABP,unknown,North
2015-03-29T07:00:28Z,1427612429,2015,7,0,88.292,88.25,73.8086,-150.2664,1021.0,-21.6,-999.0,yes,yes,no,300234061365150,IceBall,USIABP,unknown,North
2015-03-29T07:59:31Z,1427615971,2015,8,0,88.333,88.25,73.8086,-150.2664,1021.2,-22.0,-999.0,yes,yes,no,300234061365150,IceBall,USIABP,unknown,North
2015-03-29T09:00:00Z,1427619600,2015,9,0,88.375,88.375,73.8064,-150.3082,1021.6,-22.2,-999.0,yes,yes,no,300234061365150,IceBall,USIABP,unknown,North
2015-03-29T10:00:28Z,1427623229,2015,10,0,88.417,88.375,73.8064,-150.3082,1022.1,-22.3,-999.0,yes,yes,no,300234061365150,IceBall,USIABP,unknown,North
2015-03-29T10:59:31Z,1427626771,2015,11,0,88.458,88.375,73.8064,-150.3082,1022.4,-22.5,-999.0,yes,yes,no,300234061365150,IceBall,USIABP,unknown,North
2015-03-29T12:00:00Z,1427630400,2015,12,0,88.5,88.5,73.8038,-150.3452,1022.6,-22.6,-999.0,yes,yes,no,300234061365150,IceBall,USIABP,unknown,North
2015-03-29T13:00:28Z,1427634029,2015,13,0,88.542,88.5,73.8038,-150.3452,1022.9,-22.8,-999.0,yes,yes,no,300234061365150,IceBall,USIABP,unknown,North
2015-03-29T13:59:31Z,1427637571,2015,14,0,88.583,88.5,73.8038,-150.3452,1023.2,-23.4,-999.0,yes,yes,no,300234061365150,IceBall,USIABP,unknown,North
2015-03-29T15:00:00Z,1427641200,2015,15,0,88.625,88.625,73.8006,-150.3806,1023.6,-23.7,-999.0,yes,yes,no,300234061365150,IceBall,USIABP,unknown,North
2015-03-29T16:00:28Z,1427644829,2015,16,0,88.667,88.625,73.8006,-150.3806,1023.8,-23.7,-999.0,yes,yes,no,300234061365150,IceBall,USIABP,unknown,North
2015-03-29T16:59:31Z,1427648371,2015,17,0,88.708,88.625,73.8006,-150.3806,1024.0,-23.5,-999.0,yes,yes,no,300234061365150,IceBall,USIABP,unknown,North
2015-03-29T18:00:00Z,1427652000,2015,18,0,88.75,88.75,73.7972,-150.4182,1024.2,-22.4,-999.0,yes,yes,no,300234061365150,IceBall,USIABP,unknown,North
2015-03-29T19:00:28Z,1427655629,2015,19,0,88.792,88.75,73.7972,-150.4182,1024.5,-21.6,-999.0,yes,yes,no,300234061365150,IceBall,USIABP,unknown,North
2015-03-29T19:59:31Z,1427659171,2015,20,0,88.833,88.75,73.7972,-150.4182,1024.8,-21.4,-999.0,yes,yes,no,300234061365150,IceBall,USIABP,unknown,North
2015-03-29T21:00:00Z,1427662800,2015,21,0,88.875,88.875,73.7948,-150.466,1025.3,-21.5,-999.0,yes,yes,no,300234061365150,IceBall,USIABP,unknown,North
2015-03-29T22:00:28Z,1427666429,2015,22,0,88.917,88.875,73.7948,-150.466,1025.4,-21.4,-999.0,yes,yes,no,300234061365150,IceBall,USIABP,unknown,North
2015-03-29T22:59:31Z,1427669971,2015,23,0,88.958,88.875,73.7948,-150.466,1025.6,-21.2,-999.0,yes,yes,no,300234061365150,IceBall,USIABP,unknown,North
2015-03-30T00:00:00Z,1427673600,2015,0,0,89.0,89.0,73.7936,-150.517,1025.8,-20.9,-999.0,yes,yes,no,300234061365150,IceBall,USIABP,unknown,North
2015-03-30T01:00:28Z,1427677229,2015,1,0,89.042,89.0,73.7936,-150.517,1025.6,-20.6,-999.0,yes,yes,no,300234061365150,IceBall,USIABP,unknown,North
2015-03-30T01:59:31Z,1427680771,2015,2,0,89.083,89.0,73.7936,-150.517,1025.8,-20.6,-999.0,yes,yes,no,300234061365150,IceBall,USIABP,unknown,North
2015-03-30T03:00:00Z,1427684400,2015,3,0,89.125,89.125,73.793,-150.5658,1026.0,-20.8,-999.0,yes,yes,no,300234061365150,IceBall,USIABP,unknown,North
2015-03-30T04:00:28Z,1427688029,2015,4,0,89.167,89.125,73.793,-150.5658,1026.0,-21.4,-999.0,yes,yes,no,300234061365150,IceBall,USIABP,unknown,North
2015-03-30T04:59:31Z,1427691571,2015,5,0,89.208,89.125,73.793,-150.5658,1026.2,-22.0,-999.0,yes,yes,no,300234061365150,IceBall,USIABP,unknown,North
2015-03-30T06:00:00Z,1427695200,2015,6,0,89.25,89.25,73.7922,-150.6108,1026.2,-22.7,-999.0,yes,yes,no,300234061365150,IceBall,USIABP,unknown,North
2015-03-30T07:00:28Z,1427698829,2015,7,0,89.292,89.25,73.7922,-150.6108,1026.4,-23.0,-999.0,yes,yes,no,300234061365150,IceBall,USIABP,unknown,North
2015-03-30T07:59:31Z,1427702371,2015,8,0,89.333,89.25,73.7922,-150.6108,1026.4,-23.4,-999.0,yes,yes,no,300234061365150,IceBall,USIABP,unknown,North
2015-03-30T09:00:00Z,1427706000,2015,9,0,89.375,89.375,73.7918,-150.659,1026.8,-23.6,-999.0,yes,yes,no,300234061365150,IceBall,USIABP,unknown,North
2015-03-30T10:00:28Z,1427709629,2015,10,0,89.417,89.375,73.7918,-150.659,1026.9,-23.9,-999.0,yes,yes,no,300234061365150,IceBall,USIABP,unknown,North
2015-03-30T10:59:31Z,1427713171,2015,11,0,89.458,89.375,73.7918,-150.659,1027.2,-23.6,-999.0,yes,yes,no,300234061365150,IceBall,USIABP,unknown,North
2015-03-30T12:00:00Z,1427716800,2015,12,0,89.5,89.5,73.7922,-150.7074,1027.2,-24.1,-999.0,yes,yes,no,300234061365150,IceBall,USIABP,unknown,North
2015-03-30T13:00:28Z,1427720429,2015,13,0,89.542,89.5,73.7922,-150.7074,1027.2,-23.7,-999.0,yes,yes,no,300234061365150,IceBall,USIABP,unknown,North
2015-03-30T13:59:31Z,1427723971,2015,14,0,89.583,89.5,73.7922,-150.7074,1027.2,-23.9,-999.0,yes,yes,no,300234061365150,IceBall,USIABP,unknown,North
2015-03-30T15:00:00Z,1427727600,2015,15,0,89.625,89.625,73.792,-150.753,1027.0,-23.9,-999.0,yes,yes,no,300234061365150,IceBall,USIABP,unknown,North
2015-03-30T16:00:28Z,1427731229,2015,16,0,89.667,89.625,73.792,-150.753,1027.0,-23.8,-999.0,yes,yes,no,300234061365150,IceBall,USIABP,unknown,North
2015-03-30T16:59:31Z,1427734771,2015,17,0,89.708,89.625,73.792,-150.753,1027.1,-23.2,-999.0,yes,yes,no,300234061365150,IceBall,USIABP,unknown,North
2015-03-30T18:00:00Z,1427738400,2015,18,0,89.75,89.75,73.7916,-150.8052,1027.1,-22.4,-999.0,yes,yes,no,300234061365150,IceBall,USIABP,unknown,North
2015-03-30T19:00:28Z,1427742029,2015,19,0,89.792,89.75,73.7916,-150.8052,1027.2,-21.1,-999.0,yes,yes,no,300234061365150,IceBall,USIABP,unknown,North
2015-03-30T19:59:31Z,1427745571,2015,20,0,89.833,89.75,73.7916,-150.8052,1027.4,-19.7,-999.0,yes,yes,no,300234061365150,IceBall,USIABP,unknown,North
2015-03-30T21:00:00Z,1427749200,2015,21,0,89.875,89.875,73.7938,-150.8722,1027.5,-19.0,-999.0,yes,yes,no,300234061365150,IceBall,USIABP,unknown,North
2015-03-30T22:00:28Z,1427752829,2015,22,0,89.917,89.875,73.7938,-150.8722,1027.5,-18.4,-999.0,yes,yes,no,300234061365150,IceBall,USIABP,unknown,North
2015-03-30T22:59:31Z,1427756371,2015,23,0,89.958,89.875,73.7938,-150.8722,1027.6,-17.4,-999.0,yes,yes,no,300234061365150,IceBall,USIABP,unknown,North
2015-03-31T00:00:00Z,1427760000,2015,0,0,90.0,90.0,73.8008,-150.9474,1027.5,-17.1,-999.0,yes,yes,no,300234061365150,IceBall,USIABP,unknown,North
2015-03-31T01:00:28Z,1427763629,2015,1,0,90.042,90.0,73.8008,-150.9474,1027.4,-16.8,-999.0,yes,yes,no,300234061365150,IceBall,USIABP,unknown,North
2015-03-31T01:59:31Z,1427767171,2015,2,0,90.083,90.0,73.8008,-150.9474,1027.4,-16.8,-999.0,yes,yes,no,300234061365150,IceBall,USIABP,unknown,North
2015-03-31T03:00:00Z,1427770800,2015,3,0,90.125,90.125,73.8102,-151.0212,1027.3,-17.0,-999.0,yes,yes,no,300234061365150,IceBall,USIABP,unknown,North
2015-03-31T04:00:28Z,1427774429,2015,4,0,90.167,90.125,73.8102,-151.0212,1027.5,-17.3,-999.0,yes,yes,no,300234061365150,IceBall,USIABP,unknown,North
2015-03-31T04:59:31Z,1427777971,2015,5,0,90.208,90.125,73.8102,-151.0212,1027.6,-17.7,-999.0,yes,yes,no,300234061365150,IceBall,USIABP,unknown,North
2015-03-31T06:00:00Z,1427781600,2015,6,0,90.25,90.25,73.8206,-151.0928,1027.9,-18.1,-999.0,yes,yes,no,300234061365150,IceBall,USIABP,unknown,North
2015-03-31T07:00:28Z,1427785229,2015,7,0,90.292,90.25,73.8206,-151.0928,1028.1,-18.3,-999.0,yes,yes,no,300234061365150,IceBall,USIABP,unknown,North
2015-03-31T07:59:31Z,1427788771,2015,8,0,90.333,90.25,73.8206,-151.0928,1028.2,-18.5,-999.0,yes,yes,no,300234061365150,IceBall,USIABP,unknown,North
2015-03-31T09:00:00Z,1427792400,2015,9,0,90.375,90.375,73.8306,-151.1646,1028.5,-18.4,-999.0,yes,yes,no,300234061365150,IceBall,USIABP,unknown,North
2015-03-31T10:00:28Z,1427796029,2015,10,0,90.417,90.375,73.8306,-151.1646,1028.7,-18.9,-999.0,yes,yes,no,300234061365150,IceBall,USIABP,unknown,North
2015-03-31T10:59:31Z,1427799571,2015,11,0,90.458,90.375,73.8306,-151.1646,1028.9,-19.6,-999.0,yes,yes,no,300234061365150,IceBall,USIABP,unknown,North
2015-03-31T12:00:00Z,1427803200,2015,12,0,90.5,90.5,73.839,-151.23,1028.9,-19.9,-999.0,yes,yes,no,300234061365150,IceBall,USIABP,unknown,North
2015-03-31T13:00:28Z,1427806829,2015,13,0,90.542,90.5,73.839,-151.23,1029.0,-20.1,-999.0,yes,yes,no,300234061365150,IceBall,USIABP,unknown,North
2015-03-31T13:59:31Z,1427810371,2015,14,0,90.583,90.5,73.839,-151.23,1029.1,-20.2,-999.0,yes,yes,no,300234061365150,IceBall,USIABP,unknown,North
2015-03-31T15:00:00Z,1427814000,2015,15,0,90.625,90.625,73.8446,-151.2876,1029.4,-20.5,-999.0,yes,yes,no,300234061365150,IceBall,USIABP,unknown,North
2015-03-31T16:00:28Z,1427817629,2015,16,0,90.667,90.625,73.8446,-151.2876,1029.4,-21.0,-999.0,yes,yes,no,300234061365150,IceBall,USIABP,unknown,North
2015-03-31T16:59:31Z,1427821171,2015,17,0,90.708,90.625,73.8446,-151.2876,1029.6,-20.7,-999.0,yes,yes,no,300234061365150,IceBall,USIABP,unknown,North
2015-03-31T18:00:00Z,1427824800,2015,18,0,90.75,90.75,73.8488,-151.3508,1029.5,-20.1,-999.0,yes,yes,no,300234061365150,IceBall,USIABP,unknown,North
2015-03-31T19:00:28Z,1427828429,2015,19,0,90.792,90.75,73.8488,-151.3508,1029.3,-19.4,-999.0,yes,yes,no,300234061365150,IceBall,USIABP,unknown,North
2015-03-31T19:59:31Z,1427831971,2015,20,0,90.833,90.75,73.8488,-151.3508,1029.5,-19.0,-999.0,yes,yes,no,300234061365150,IceBall,USIABP,unknown,North
2015-03-31T21:00:00Z,1427835600,2015,21,0,90.875,90.875,73.8544,-151.424,1029.8,-19.4,-999.0,yes,yes,no,300234061365150,IceBall,USIABP,unknown,North
2015-03-31T22:00:28Z,1427839229,2015,22,0,90.917,90.875,73.8544,-151.424,1030.0,-19.5,-999.0,yes,yes,no,300234061365150,IceBall,USIABP,unknown,North
2015-03-31T22:59:31Z,1427842771,2015,23,0,90.958,90.875,73.8544,-151.424,1029.9,-19.4,-999.0,yes,yes,no,300234061365150,IceBall,USIABP,unknown,North
2015-04-01T00:00:00Z,1427846400,2015,0,0,91.0,91.0,73.8622,-151.5036,1029.9,-19.4,-999.0,yes,yes,no,300234061365150,IceBall,USIABP,unknown,North
2015-04-01T01:00:28Z,1427850029,2015,1,0,91.042,91.0,73.8622,-151.5036,1030.0,-19.3,-999.0,yes,yes,no,300234061365150,IceBall,USIABP,unknown,North
2015-04-01T01:59:31Z,1427853571,2015,2,0,91.083,91.0,73.8622,-151.5036,1030.1,-19.3,-999.0,yes,yes,no,300234061365150,IceBall,USIABP,unknown,North
2015-04-01T03:00:00Z,1427857200,2015,3,0,91.125,91.125,73.8698,-151.5764,1030.1,-19.7,-999.0,yes,yes,no,300234061365150,IceBall,USIABP,unknown,North
2015-04-01T04:00:28Z,1427860829,2015,4,0,91.167,91.125,73.8698,-151.5764,1030.0,-19.9,-999.0,yes,yes,no,300234061365150,IceBall,USIABP,unknown,North
2015-04-01T04:59:31Z,1427864371,2015,5,0,91.208,91.125,73.8698,-151.5764,1030.2,-20.4,-999.0,yes,yes,no,300234061365150,IceBall,USIABP,unknown,North
2015-04-01T06:00:00Z,1427868000,2015,6,0,91.25,91.25,73.8756,-151.6434,1030.2,-21.0,-999.0,yes,yes,no,300234061365150,IceBall,USIABP,unknown,North
2015-04-01T07:00:28Z,1427871629,2015,7,0,91.292,91.25,73.8756,-151.6434,1030.2,-21.4,-999.0,yes,yes,no,300234061365150,IceBall,USIABP,unknown,North
2015-04-01T07:59:31Z,1427875171,2015,8,0,91.333,91.25,73.8756,-151.6434,1030.3,-21.8,-999.0,yes,yes,no,300234061365150,IceBall,USIABP,unknown,North
2015-04-01T09:00:00Z,1427878800,2015,9,0,91.375,91.375,73.8804,-151.7086,1030.5,-22.1,-999.0,yes,yes,no,300234061365150,IceBall,USIABP,unknown,North
2015-04-01T10:00:28Z,1427882429,2015,10,0,91.417,91.375,73.8804,-151.7086,1030.5,-22.5,-999.0,yes,yes,no,300234061365150,IceBall,USIABP,unknown,North
2015-04-01T10:59:31Z,1427885971,2015,11,0,91.458,91.375,73.8804,-151.7086,1030.6,-22.8,-999.0,yes,yes,no,300234061365150,IceBall,USIABP,unknown,North